Regional Weather Roundup
Issued by NWS

Home | Current Version | Previous Version | Text Only | Print | Product List | Glossary On
Versions: 1 2 3 4 5 6 7 8 9 10 11 12 13 14 15 16 17 18 19 20 21 22 23 24 25 26 27 28 29 30 31 32 33 34 35 36 37 38 39 40 41 42 43 44 45 46 47 48 49 50
277
ASUS44 KJAN 281110
RWRMS

MISSISSIPPI HOURLY WEATHER ROUNDUP
NATIONAL WEATHER SERVICE JACKSON MS
600 AM CDT SAT MAR 28 2015

NOTE: "FAIR: INDICATES FEW OR NO CLOUDS BELOW 12,000 FEET WITH NO
SIGNIFICANT WEATHER AND/OR OBSTRUCTIONS TO VISIBILITY.

MSZ001>002-007>008-010>013-018>021-025>028-034>036-281200-
NORTHWEST MISSISSIPPI

CITY           SKY/WX    TMP DP  RH WIND       PRES   REMARKS
CLARKSDALE     CLOUDY    39  30  70 E5        30.22F
CLEVELAND      PTSUNNY   39  35  86 E6        30.21R WCI  35
GREENWOOD      PTCLDY    38  31  76 NE5       30.22R WCI  34
GREENVILLE     PTCLDY    40  35  83 E5        30.20R
OLIVE BRANCH   MOCLDY    32  28  86 CALM      30.22R
OXFORD         FAIR      28  27  93 CALM      30.22S
TUNICA         PTSUNNY   37  28  70 E5        30.23R WCI  34
$$

MSZ003>006-009-014>017-022>024-029>033-037>039-281200-
NORTHEAST MISSISSIPPI

CITY           SKY/WX    TMP DP  RH WIND       PRES   REMARKS
COLUMBUS AFB   MOCLDY    36  28  72 N5        30.21R WCI  32
CORINTH        FAIR      32  27  80 CALM      30.20R
GOLDN TRIANGLE PTCLDY    36  28  75 N5        30.20R WCI  32
STARKVILLE     FAIR      32  32 100 CALM      30.21R
TUPELO         CLOUDY    33  26  75 N5        30.21R WCI  29
$$

MSZ040-058-281200-
CENTRAL MISSISSIPPI

CITY           SKY/WX    TMP DP  RH WIND       PRES   REMARKS
JACKSON INTL   CLEAR     37  34  89 CALM      30.20R
JACKSON HAWKNS CLEAR     39  36  89 CALM      30.21R
MERIDIAN KEY   CLEAR     36  34  92 SW3       30.22R
MERIDIAN NAS   NOT AVBL
RAYMOND        FAIR      37  32  81 CALM      30.20S
VICKSBURG      CLEAR     38  35  89 CALM      30.21R
$$

MSZ059>079-281200-
SOUTH MISSISSIPPI

CITY           SKY/WX    TMP DP  RH WIND       PRES   REMARKS
BROOKHAVEN       N/A     36  36 100 CALM      30.20R
HATTIESBURG    CLEAR     39  37  92 CALM      30.21R
MCCOMB         CLEAR     40  37  89 CALM      30.18R
NATCHEZ        CLEAR     39  36  87 CALM      30.18R
PINE BELT      CLEAR     36  32  87 MISG      30.20R
$$

MSZ080>082-281200-
COASTAL MISSISSIPPI

CITY           SKY/WX    TMP DP  RH WIND       PRES   REMARKS
BILOXI         CLEAR     45  38  77 NE6       30.20R
PASCAGOULA     CLEAR     39  38  96 CALM      30.20R
GULFPORT       CLEAR     44  37  76 N3        30.20R
$$



USA.gov is the U.S. government's official web portal to all federal, state and local government web resources and services.